FW6924 Weather Reports


Display with metric or nautical units.
time (UTC)temp
F
wind
direction
speed
MPH
gust
MPH
rain 1hr
in
rain 24hr
in
rain mn
in
humidity
%
barometer
mb
20260903141001 83 196 1.0 4.0 0.00 0.15 0.04 87 1013.1
20260903140005 82 194 1.0 4.0 0.00 0.15 0.04 87 1013.3
20260903135001 82 169 1.0 3.0 0.00 0.15 0.04 88 1013.4
20260903134003 82 156 1.0 4.0 0.00 0.15 0.04 89 1013.4
20260903133001 81 146 1.0 4.0 0.00 0.15 0.04 91 1013.2
20260903132003 80 133 1.0 4.0 0.00 0.15 0.04 91 1013.2
20260903131001 79 138 1.0 6.0 0.00 0.15 0.04 92 1013.1
20260903130007 79 128 2.0 7.0 0.00 0.15 0.04 94 1013.0
20260903125001 78 111 3.0 7.0 0.00 0.15 0.04 94 1013.0
20260903124003 77 117 3.0 8.0 0.00 0.15 0.04 95 1013.0
20260903123001 77 113 1.0 7.0 0.00 0.15 0.04 95 1013.0
20260903122003 77 113 1.0 4.0 0.00 0.15 0.04 96 1013.0
20260903121001 77 113 1.0 4.0 0.00 0.15 0.04 96 1013.0
20260903115000 76 119 1.0 2.0 0.00 0.15 0.04 96 1012.5
20260903114003 76 120 0.0 0.0 0.00 0.15 0.04 95 1012.4
20260903113001 75 120 0.0 0.0 0.00 0.15 0.04 95 1012.2
20260903112003 76 120 0.0 0.0 0.00 0.15 0.04 95 1011.9
20260903111001 76 120 0.0 0.0 0.00 0.15 0.04 95 1011.8
20260903110005 76 120 0.0 0.0 0.00 0.15 0.04 95 1011.8
20260903105001 76 120 0.0 0.0 0.00 0.16 0.04 95 1011.8
20260903102003 76 120 0.0 0.0 0.00 0.16 0.04 95 1011.7
20260903101001 76 120 0.0 0.0 0.00 0.16 0.04 95 1011.6
20260903100005 76 120 0.0 2.0 0.00 0.16 0.04 95 1011.5
20260903094003 76 111 0.0 0.0 0.00 0.16 0.04 95 1011.4
20260903093001 76 111 1.0 4.0 0.00 0.16 0.04 95 1011.3
20260903092003 76 110 0.0 2.0 0.00 0.16 0.04 95 1011.2
20260903091001 76 111 0.0 0.0 0.00 0.16 0.04 95 1011.1
20260903090005 76 111 1.0 3.0 0.00 0.16 0.04 94 1011.2
20260903085001 76 111 1.0 3.0 0.00 0.16 0.04 94 1011.2
20260903084004 76 111 1.0 3.0 0.00 0.16 0.04 94 1011.0
20260903083000 77 111 1.0 4.0 0.00 0.16 0.04 94 1011.0
20260903082003 77 112 2.0 4.0 0.00 0.16 0.04 94 1010.8
20260903075001 77 123 1.0 3.0 0.00 0.16 0.04 94 1011.1
20260903074002 77 123 1.0 3.0 0.00 0.16 0.04 94 1011.1
20260903072002 76 112 2.0 6.0 0.00 0.16 0.04 95 1011.0
20260903071002 76 121 3.0 6.0 0.00 0.16 0.04 95 1011.2
20260903070005 76 111 3.0 6.0 0.00 0.16 0.04 95 1011.3
20260903065000 76 117 3.0 6.0 0.00 0.16 0.04 95 1011.4
20260903064002 76 111 3.0 6.0 0.00 0.16 0.04 95 1011.4
20260903063001 76 113 3.0 6.0 0.00 0.16 0.04 95 1011.7
20260903062001 76 107 0.0 4.0 0.00 0.16 0.04 95 1011.6
20260903061000 76 121 0.0 4.0 0.01 0.16 0.04 95 1011.7
20260903060003 76 121 0.0 4.0 0.01 0.16 0.04 95 1011.9
20260903054000 76 125 0.0 0.0 0.02 0.16 0.04 95 1012.1
20260903053003 76 125 0.0 0.0 0.02 0.16 0.04 95 1012.3
20260903052000 76 125 0.0 0.0 0.03 0.16 0.04 94 1012.5
20260903051002 76 125 0.0 0.0 0.03 0.15 0.03 94 1012.5
20260903050004 76 125 0.0 0.0 0.03 0.15 0.03 94 1012.5
20260903045004 76 125 0.0 0.0 0.03 0.15 0.03 94 1012.5
20260903044002 76 125 0.0 0.0 0.03 0.14 0.02 94 1012.6
20260903043006 76 125 0.0 0.0 0.03 0.14 0.02 94 1012.8
20260903042002 76 125 0.0 0.0 0.03 0.13 0.01 94 1013.0
20260903041004 76 125 0.0 0.0 0.02 0.12 0.00 94 1012.8
20260903040009 76 125 0.0 0.0 0.03 0.12 0.00 94 1012.7
20260903034002 76 125 0.0 0.0 0.04 0.11 0.11 94 1013.0
20260903032002 76 125 1.0 3.0 0.06 0.10 0.10 94 1013.2
20260903031002 76 126 1.0 3.0 0.08 0.10 0.10 94 1013.4
20260903030006 76 134 1.0 4.0 0.08 0.09 0.09 93 1013.2
20260903025002 76 88 0.0 0.0 0.08 0.09 0.09 93 1013.3
20260903024004 76 88 0.0 0.0 0.06 0.07 0.07 92 1013.4
20260903023002 76 76 0.0 1.0 0.05 0.06 0.06 91 1013.2
20260903022004 77 76 0.0 2.0 0.03 0.04 0.04 91 1012.8
20260903021002 77 76 0.0 2.0 0.01 0.02 0.02 91 1012.9
20260903020007 77 76 0.0 2.0 0.00 0.01 0.01 90 1012.7
20260903015002 77 76 0.0 0.0 0.00 0.01 0.01 90 1012.6
20260903014004 77 76 0.0 5.0 0.00 0.01 0.01 90 1012.9
20260903013002 77 93 2.0 6.0 0.00 0.01 0.01 89 1012.6
20260903011002 77 98 3.0 8.0 0.00 0.01 0.01 89 1012.6
20260903010007 78 109 0.0 3.0 0.00 0.01 0.01 89 1012.7
20260903005002 78 40 2.0 7.0 0.00 0.01 0.01 88 1012.7
20260903004004 79 110 2.0 8.0 0.00 0.01 0.01 88 1012.2
20260903003002 79 98 1.0 4.0 0.00 0.01 0.01 88 1011.8
20260903000007 81 355 3.0 15.0 0.00 0.01 0.01 84 1012.2
20260902235002 82 342 6.0 18.0 0.00 0.04 0.01 82 1012.1
20260902234004 83 299 4.0 12.0 0.00 0.04 0.01 83 1011.5
20260902233002 83 288 4.0 10.0 0.00 0.04 0.01 83 1011.7
20260902231002 84 286 5.0 10.0 0.00 0.04 0.01 83 1011.5
20260902230007 85 292 5.0 11.0 0.00 0.04 0.01 83 1011.4
20260902225002 85 284 5.0 11.0 0.00 0.05 0.01 82 1011.4
20260902224004 85 259 4.0 9.0 0.00 0.05 0.01 81 1011.0
20260902223002 86 284 5.0 11.0 0.00 0.05 0.01 79 1011.1
20260902221002 87 271 6.0 11.0 0.00 0.05 0.01 78 1011.3
20260902220006 87 259 5.0 9.0 0.00 0.05 0.01 78 1011.1
20260902215002 87 288 5.0 8.0 0.00 0.05 0.01 79 1011.1
20260902214004 87 286 6.0 12.0 0.00 0.05 0.01 79 1011.1
20260902213002 87 279 4.0 9.0 0.00 0.05 0.01 78 1011.1
20260902212004 88 252 4.0 9.0 0.00 0.05 0.01 77 1011.1
20260902211002 89 286 6.0 9.0 0.00 0.05 0.01 73 1011.2
20260902210007 89 275 4.0 9.0 0.00 0.05 0.01 75 1011.2
20260902205002 88 269 3.0 6.0 0.00 0.05 0.01 76 1011.3
20260902203002 89 258 3.0 8.0 0.00 0.05 0.01 73 1011.3
20260902202002 90 240 1.0 4.0 0.00 0.05 0.01 68 1011.3
20260902201002 91 145 1.0 5.0 0.00 0.05 0.01 68 1011.3
20260902200004 90 210 2.0 7.0 0.00 0.05 0.01 68 1011.5
20260902194002 90 226 2.0 4.0 0.00 0.05 0.01 70 1011.9
20260902193004 88 242 3.0 7.0 0.00 0.05 0.01 72 1011.9
20260902192003 88 253 2.0 7.0 0.00 0.05 0.01 71 1012.0
20260902185001 89 104 1.0 5.0 0.00 0.05 0.01 68 1012.5
20260902184001 91 97 0.0 6.0 0.00 0.05 0.01 67 1012.7
20260902182004 90 96 1.0 6.0 0.00 0.05 0.01 68 1012.8
20260902181001 89 207 1.0 6.0 0.00 0.05 0.01 69 1013.1
20260902175001 89 110 0.0 3.0 0.00 0.05 0.01 71 1013.3
20260902174021 89 184 0.0 3.0 0.00 0.05 0.01 70 1013.4
20260902173001 88 80 0.0 2.0 0.00 0.05 0.01 71 1013.4
20260902172004 88 338 0.0 2.0 0.00 0.05 0.01 73 1013.6
20260902171001 89 355 2.0 5.0 0.00 0.05 0.01 70 1013.6
20260902170005 90 84 1.0 6.0 0.00 0.05 0.01 71 1013.7
20260902165001 89 107 2.0 4.0 0.00 0.05 0.01 72 1014.0
20260902162003 87 76 0.0 2.0 0.00 0.05 0.01 75 1014.2
20260902161001 87 323 2.0 4.0 0.00 0.05 0.01 72 1014.4
20260902160007 87 113 2.0 4.0 0.00 0.05 0.01 73 1014.4
20260902155001 88 85 1.0 4.0 0.00 0.05 0.01 74 1014.4
20260902154021 88 94 1.0 4.0 0.00 0.05 0.01 75 1014.4
20260902153001 85 86 0.0 4.0 0.00 0.05 0.01 78 1014.4
20260902152021 84 19 1.0 5.0 0.00 0.05 0.01 79 1014.5
20260902151001 84 5 0.0 3.0 0.00 0.05 0.01 80 1014.7
20260902150005 85 13 1.0 5.0 0.00 0.05 0.01 79 1014.7
20260902145001 85 39 0.0 4.0 0.00 0.05 0.01 82 1014.6
20260902144003 85 56 1.0 6.0 0.00 0.05 0.01 83 1014.7
20260902143001 84 81 1.0 5.0 0.00 0.05 0.01 82 1014.6
20260902142003 84 59 1.0 5.0 0.00 0.05 0.01 83 1014.4